TimeEDT,TemperatureF,Dew PointF,Humidity,Sea Level PressureIn,VisibilityMPH,Wind Direction,Wind SpeedMPH,Gust SpeedMPH,PrecipitationIn,Events,Conditions,WindDirDegrees,DateUTC
12:15 AM,17.6,12.2,79,29.78,1.8,WSW,8.1,-,N/A,,Overcast,240,2013-03-21 04:15:00
12:35 AM,15.8,12.2,86,29.78,3.0,WSW,8.1,-,N/A,,Overcast,240,2013-03-21 04:35:00
12:55 AM,15.8,12.2,86,29.78,3.0,SW,8.1,-,N/A,,Overcast,230,2013-03-21 04:55:00
1:15 AM,14.0,10.4,86,29.77,10.0,WSW,8.1,-,N/A,,Mostly Cloudy,240,2013-03-21 05:15:00
1:35 AM,15.8,12.2,86,29.77,3.0,SW,6.9,-,N/A,,Mostly Cloudy,230,2013-03-21 05:35:00
2:15 AM,15.8,12.2,86,29.77,10.0,SW,5.8,-,N/A,,Overcast,230,2013-03-21 06:15:00
2:35 AM,15.8,12.2,86,29.76,7.0,SW,5.8,-,N/A,,Overcast,220,2013-03-21 06:35:00
2:55 AM,15.8,12.2,86,29.76,1.5,WSW,6.9,-,N/A,,Overcast,240,2013-03-21 06:55:00
3:15 AM,15.8,12.2,86,29.75,1.0,WSW,8.1,-,N/A,,Overcast,250,2013-03-21 07:15:00
3:35 AM,15.8,12.2,86,29.75,2.0,WSW,5.8,-,N/A,,Overcast,240,2013-03-21 07:35:00
3:55 AM,15.8,12.2,86,29.75,2.5,WSW,6.9,-,N/A,,Overcast,240,2013-03-21 07:55:00
4:15 AM,15.8,12.2,86,29.74,3.0,WSW,4.6,-,N/A,,Overcast,250,2013-03-21 08:15:00
4:35 AM,15.8,12.2,86,29.74,7.0,WSW,4.6,-,N/A,,Overcast,250,2013-03-21 08:35:00
4:55 AM,15.8,12.2,86,29.73,5.0,SW,4.6,-,N/A,,Mostly Cloudy,230,2013-03-21 08:55:00
5:15 AM,15.8,12.2,86,29.73,7.0,SW,3.5,-,N/A,,Overcast,230,2013-03-21 09:15:00
5:35 AM,15.8,12.2,86,29.73,3.0,WSW,4.6,-,N/A,,Overcast,240,2013-03-21 09:35:00
5:55 AM,15.8,12.2,86,29.73,3.0,Calm,Calm,-,N/A,,Overcast,0,2013-03-21 09:55:00
6:15 AM,15.8,12.2,86,29.73,1.8,SW,5.8,-,N/A,,Overcast,230,2013-03-21 10:15:00
6:35 AM,15.8,12.2,86,29.73,5.0,SW,3.5,-,N/A,,Overcast,230,2013-03-21 10:35:00
6:55 AM,14.0,10.4,86,29.73,10.0,SW,4.6,-,N/A,,Scattered Clouds,220,2013-03-21 10:55:00
7:15 AM,12.2,10.4,92,29.73,9.0,WSW,5.8,-,N/A,,Mostly Cloudy,240,2013-03-21 11:15:00
7:35 AM,12.2,10.4,92,29.73,9.0,SW,5.8,-,N/A,,Overcast,230,2013-03-21 11:35:00
7:55 AM,12.2,10.4,92,29.73,5.0,SSW,4.6,-,N/A,,Overcast,210,2013-03-21 11:55:00
8:15 AM,14.0,10.4,86,29.73,2.0,SW,5.8,-,N/A,,Overcast,230,2013-03-21 12:15:00
8:55 AM,14.0,10.4,86,29.73,10.0,SW,8.1,-,N/A,,Partly Cloudy,230,2013-03-21 12:55:00
9:15 AM,14.0,10.4,86,29.73,10.0,WSW,9.2,-,N/A,,Scattered Clouds,240,2013-03-21 13:15:00
9:35 AM,15.8,12.2,86,29.73,7.0,WSW,12.7,-,N/A,,Overcast,240,2013-03-21 13:35:00
9:55 AM,15.8,10.4,79,29.73,0.8,West,12.7,-,N/A,,Overcast,260,2013-03-21 13:55:00
10:15 AM,17.6,10.4,73,29.74,8.0,WSW,10.4,-,N/A,,Overcast,250,2013-03-21 14:15:00
10:35 AM,17.6,10.4,73,29.74,10.0,WSW,13.8,-,N/A,,Overcast,250,2013-03-21 14:35:00
10:55 AM,17.6,10.4,73,29.74,9.0,SW,13.8,-,N/A,,Overcast,230,2013-03-21 14:55:00
11:15 AM,17.6,10.4,73,29.74,7.0,WSW,9.2,17.3,N/A,,Overcast,240,2013-03-21 15:15:00
11:35 AM,19.4,10.4,68,29.74,10.0,WSW,12.7,-,N/A,,Overcast,250,2013-03-21 15:35:00
11:55 AM,17.6,8.6,68,29.74,5.0,WSW,11.5,17.3,N/A,,Overcast,250,2013-03-21 15:55:00
12:35 PM,19.4,12.2,74,29.74,2.0,West,13.8,-,N/A,,Overcast,260,2013-03-21 16:35:00
12:55 PM,19.4,12.2,74,29.73,3.0,SW,9.2,-,N/A,,Overcast,230,2013-03-21 16:55:00
1:15 PM,19.4,12.2,74,29.73,2.0,WSW,11.5,-,N/A,,Overcast,240,2013-03-21 17:15:00
1:35 PM,19.4,12.2,74,29.73,4.0,WSW,12.7,-,N/A,,Overcast,240,2013-03-21 17:35:00
1:55 PM,21.2,12.2,68,29.73,5.0,West,15.0,19.6,N/A,,Overcast,260,2013-03-21 17:55:00
2:15 PM,21.2,12.2,68,29.73,2.5,West,12.7,-,N/A,,Overcast,270,2013-03-21 18:15:00
2:35 PM,21.2,15.8,80,29.72,1.0,WSW,11.5,-,N/A,,Overcast,250,2013-03-21 18:35:00
2:55 PM,21.2,12.2,68,29.72,4.0,West,15.0,20.7,N/A,,Overcast,270,2013-03-21 18:55:00
3:15 PM,21.2,15.8,80,29.71,5.0,WSW,15.0,20.7,N/A,,Overcast,250,2013-03-21 19:15:00
3:35 PM,21.2,14.0,74,29.71,8.0,West,13.8,-,N/A,,Overcast,260,2013-03-21 19:35:00
3:55 PM,21.2,15.8,80,29.71,3.0,West,15.0,-,N/A,,Overcast,260,2013-03-21 19:55:00
4:15 PM,21.2,15.8,80,29.71,1.5,West,15.0,23.0,N/A,,Overcast,260,2013-03-21 20:15:00
4:35 PM,21.2,17.6,86,29.71,1.2,West,15.0,-,N/A,,Overcast,260,2013-03-21 20:35:00
4:55 PM,21.2,17.6,86,29.71,2.0,West,16.1,-,N/A,,Overcast,260,2013-03-21 20:55:00
5:15 PM,21.2,17.6,86,29.72,1.0,West,17.3,24.2,N/A,,Overcast,260,2013-03-21 21:15:00
5:35 PM,21.2,17.6,86,29.71,1.2,WSW,16.1,24.2,N/A,,Overcast,250,2013-03-21 21:35:00
5:55 PM,21.2,17.6,86,29.71,1.0,WSW,15.0,-,N/A,,Overcast,250,2013-03-21 21:55:00
6:15 PM,21.2,19.4,93,29.71,0.8,West,12.7,-,N/A,,Overcast,260,2013-03-21 22:15:00
6:35 PM,21.2,19.4,93,29.71,0.8,West,11.5,-,N/A,,Overcast,260,2013-03-21 22:35:00
6:55 PM,23.0,19.4,86,29.71,1.8,West,11.5,-,N/A,,Overcast,260,2013-03-21 22:55:00
7:15 PM,23.0,19.4,86,29.71,1.5,WSW,12.7,-,N/A,,Overcast,250,2013-03-21 23:15:00
7:35 PM,23.0,21.2,93,29.72,0.2,WNW,15.0,18.4,N/A,,Overcast,300,2013-03-21 23:35:00
7:55 PM,23.0,17.6,80,29.72,2.5,WNW,15.0,20.7,N/A,,Mostly Cloudy,290,2013-03-21 23:55:00
8:15 PM,23.0,19.4,86,29.73,3.0,WNW,15.0,-,N/A,,Overcast,300,2013-03-22 00:15:00
8:35 PM,23.0,17.6,80,29.73,3.0,WNW,16.1,26.5,N/A,,Overcast,300,2013-03-22 00:35:00
8:55 PM,21.2,17.6,86,29.74,3.0,WNW,11.5,18.4,N/A,,Overcast,290,2013-03-22 00:55:00
9:15 PM,21.2,17.6,86,29.74,3.0,WNW,13.8,18.4,N/A,,Overcast,300,2013-03-22 01:15:00
9:35 PM,21.2,17.6,86,29.75,1.8,WNW,12.7,17.3,N/A,,Overcast,290,2013-03-22 01:35:00
9:55 PM,21.2,17.6,86,29.75,2.0,WNW,10.4,-,N/A,,Overcast,300,2013-03-22 01:55:00
10:15 PM,21.2,17.6,86,29.74,2.5,WNW,9.2,-,N/A,,Overcast,290,2013-03-22 02:15:00
10:35 PM,21.2,17.6,86,29.75,4.0,WNW,11.5,-,N/A,,Overcast,290,2013-03-22 02:35:00
10:55 PM,21.2,15.8,80,29.75,5.0,WNW,10.4,-,N/A,,Overcast,290,2013-03-22 02:55:00
11:15 PM,21.2,17.6,86,29.75,2.0,West,8.1,-,N/A,,Overcast,280,2013-03-22 03:15:00
11:35 PM,21.2,17.6,86,29.75,3.0,WNW,10.4,-,N/A,,Overcast,290,2013-03-22 03:35:00
11:55 PM,21.2,17.6,86,29.75,3.0,WNW,12.7,-,N/A,,Overcast,300,2013-03-22 03:55:00